Weather History for Wooster, OH

Change the Weather History Date:

Thursday, September 4, 2014

  Actual Average Record
Temperature  
Mean Temperature 70 °F -  
Max Temperature 84 °F 76 °F 88 °F (2008)
Min Temperature 57 °F 52 °F 39 °F (1997)
Cooling Degree Days 4    
Growing Degree Days 20 (Base 50)    
Moisture  
Dew Point 60 °F    
Average Humidity 86    
Maximum Humidity 97    
Minimum Humidity 52    
Precipitation  
Precipitation 0.00 in - - ()
Sea Level Pressure  
Sea Level Pressure 30.11 in    
Wind  
Wind Speed 1 mph (SSW)    
Max Wind Speed 10 mph    
Max Gust Speed -    
Visibility 4 miles    
Events Fog    
Averages and records for this station are not official NWS values.
T = Trace of Precipitation, MM = Missing Value Source: NWS Daily Summary

Daily Weather History Graph

Daily Weather History Graph

Search for Another Location

Airport:

Trip Planner

Search our weather history database for the weather conditions in past years. The results will help you decide how hot, cold, wet, or windy it might be!

Date:

Astronomy

Sep. 04, 2014 Rise Set
Actual Time 6:57 AM EDT 7:55 PM EDT
Civil Twilight 6:29 AM EDT 8:22 PM EDT
Nautical Twilight 5:55 AM EDT 8:56 PM EDT
Astronomical Twilight 5:21 AM EDT 9:30 PM EDT
Moon 4:32 PM EDT (9/4) 1:45 AM EDT (9/4)
Length of Visible Light 13h 53m
Length of Day
12h 57m
Waxing Gibbous, 74% of the Moon is Illuminated
Sep 4
Waxing Gibbous
Sep 8
Full
Sep 15
Last Quarter
Sep 24
New
Oct 1
First Quarter

Hourly Weather History & Observations

Time (EDT) Temp. Heat Index Dew Point Humidity Pressure Visibility Wind Dir Wind Speed Gust Speed Precip Events Conditions
12:56 AM 61.0 °F - 59.0 °F 93% 30.10 in 3.0 mi Calm Calm - N/A   Clear
1:53 AM 60.8 °F - 57.2 °F 88% 30.12 in 1.8 mi Calm Calm - N/A   Clear
1:56 AM 61.0 °F - 57.9 °F 90% 30.10 in 1.0 mi Calm Calm - N/A   Clear
2:03 AM 60.1 °F - 57.9 °F 93% 30.12 in 2.0 mi Calm Calm - N/A   Clear
2:10 AM 60.1 °F - 57.9 °F 93% 30.12 in 7.0 mi Calm Calm - N/A   Clear
2:30 AM 60.1 °F - 57.9 °F 93% 30.11 in 1.5 mi Calm Calm - N/A   Clear
2:33 AM 60.1 °F - 57.9 °F 93% 30.11 in 0.8 mi Calm Calm - N/A   Clear
2:47 AM 60.1 °F - 57.9 °F 93% 30.12 in 0.2 mi Calm Calm - N/A Fog Fog
2:56 AM 59.0 °F - 57.9 °F 96% 30.10 in 0.2 mi Calm Calm - N/A Fog Fog
3:09 AM 59.0 °F - 57.0 °F 93% 30.12 in 3.0 mi Calm Calm - N/A   Clear
3:17 AM 59.0 °F - 57.0 °F 93% 30.12 in 1.0 mi Calm Calm - N/A   Clear
3:24 AM 59.0 °F - 57.0 °F 93% 30.12 in 0.5 mi Calm Calm - N/A Fog Fog
3:38 AM 59.0 °F - 57.0 °F 93% 30.12 in 1.2 mi Calm Calm - N/A   Partly Cloudy
3:47 AM 57.9 °F - 57.0 °F 97% 30.12 in 0.8 mi Calm Calm - N/A   Partly Cloudy
3:56 AM 57.9 °F - 57.0 °F 97% 30.10 in 0.5 mi Calm Calm - N/A Fog Fog
4:07 AM 57.9 °F - 57.0 °F 97% 30.12 in 1.2 mi Calm Calm - N/A   Partly Cloudy
4:11 AM 57.9 °F - 57.0 °F 97% 30.13 in 3.0 mi Calm Calm - N/A   Partly Cloudy
4:23 AM 59.0 °F - 57.0 °F 93% 30.13 in 1.8 mi Calm Calm - N/A   Partly Cloudy
4:26 AM 57.9 °F - 57.0 °F 97% 30.13 in 0.8 mi Calm Calm - N/A   Partly Cloudy
4:46 AM 57.9 °F - 57.0 °F 97% 30.12 in 1.2 mi Calm Calm - N/A   Clear
4:56 AM 57.9 °F - 57.0 °F 97% 30.11 in 0.5 mi Calm Calm - N/A Fog Fog
5:08 AM 57.0 °F - 55.9 °F 96% 30.12 in 1.2 mi Calm Calm - N/A   Clear
5:23 AM 57.9 °F - 55.9 °F 93% 30.12 in 2.0 mi Calm Calm - N/A   Partly Cloudy
5:33 AM 57.9 °F - 57.0 °F 97% 30.12 in 5.0 mi Calm Calm - N/A   Clear
5:49 AM 57.9 °F - 57.0 °F 97% 30.12 in 1.8 mi Calm Calm - N/A   Partly Cloudy
5:56 AM 57.9 °F - 57.0 °F 97% 30.11 in 1.0 mi Calm Calm - N/A   Partly Cloudy
6:13 AM 57.9 °F - 55.9 °F 93% 30.11 in 0.5 mi Calm Calm - N/A Fog Fog
6:32 AM 57.9 °F - 55.9 °F 93% 30.11 in 1.2 mi SE 3.5 mph - 0.00 in   Clear
6:56 AM 57.9 °F - 57.0 °F 97% 30.10 in 1.8 mi Calm Calm - 0.00 in   Clear
7:08 AM 57.9 °F - 55.9 °F 93% 30.12 in 1.0 mi Calm Calm - N/A   Clear
7:12 AM 57.9 °F - 55.9 °F 93% 30.12 in 2.0 mi Calm Calm - N/A   Clear
7:19 AM 59.0 °F - 57.0 °F 93% 30.12 in 4.0 mi Calm Calm - N/A   Clear
7:56 AM 61.0 °F - 59.0 °F 93% 30.11 in 5.0 mi Calm Calm - N/A   Clear
8:56 AM 69.1 °F - 64.9 °F 87% 30.11 in 6.0 mi Calm Calm - N/A   Clear
9:56 AM 73.9 °F - 66.0 °F 76% 30.12 in 10.0 mi South 3.5 mph - N/A   Clear
10:56 AM 79.0 °F - 66.0 °F 64% 30.14 in 10.0 mi SW 6.9 mph - N/A   Clear
11:56 AM 80.1 °F 81.9 °F 64.9 °F 60% 30.13 in 10.0 mi SW 10.4 mph - N/A   Clear
12:56 PM 81.0 °F 82.7 °F 64.9 °F 58% 30.12 in 10.0 mi WSW 10.4 mph - N/A   Scattered Clouds
1:56 PM 82.0 °F 83.1 °F 63.0 °F 52% 30.10 in 10.0 mi SW 9.2 mph - N/A   Scattered Clouds
2:56 PM 82.9 °F 84.4 °F 64.0 °F 53% 30.09 in 10.0 mi SW 8.1 mph - N/A   Partly Cloudy
3:56 PM 82.9 °F 85.0 °F 66.0 °F 56% 30.08 in 10.0 mi SSW 5.8 mph - N/A   Clear
4:56 PM 82.9 °F 84.4 °F 64.0 °F 53% 30.07 in 10.0 mi WSW 5.8 mph - N/A   Clear
5:56 PM 82.0 °F 84.1 °F 66.0 °F 58% 30.08 in 10.0 mi SSW 6.9 mph - N/A   Clear
6:56 PM 79.0 °F - 66.0 °F 64% 30.07 in 10.0 mi South 6.9 mph - N/A   Clear
7:56 PM 73.9 °F - 64.9 °F 73% 30.08 in 9.0 mi South 4.6 mph - N/A   Clear
8:56 PM 72.0 °F - 66.0 °F 81% 30.10 in 9.0 mi Calm Calm - 0.00 in   Overcast
9:56 PM 71.1 °F - 66.9 °F 87% 30.09 in 8.0 mi SSE 4.6 mph - N/A   Mostly Cloudy
11:56 PM 68.0 °F - 64.0 °F 87% 30.11 in 8.0 mi WSW 3.5 mph - N/A   Clear